Weather in Chkalov

Russia / Orenburg Oblast     51˚43′14″N   55˚21′54″E
temp.,
°C
wind,
m/s
gust,
m/s
humid.,
%
clouds,
%
prec.,
mm/h
press.,
hPa
HPBL,
m
16 january, sat
sat1623:00−5˚ese6118893 0.0 1008373
02:00−5˚ese61288100 0.0 1005357
05:00−3˚se61289100 0.0 1003403
08:00−2˚s61197100 0.7 1003448
11:00−2˚wsw81291100 0.9 1006676
14:00−6˚wsw8148889 0.0 1010575
17:00−9˚sw5129073 0.0 1012411
20:00−12˚ssw4109462 0.0 1013199
17 january, sun
sun1723:00−10˚ssw5149349 0.0 1013347
02:00−6˚ssw81689100 0.1 1012721
05:00−7˚sw7159099 0.3 1012952
08:00−13˚sw6148928 0.0 1013428
11:00−15˚sw6129246 0.0 1015408
14:00−14˚wsw6109189 0.0 1015429
17:00−16˚wsw239593 0.0 101624
20:00−20˚wsw229851 0.0 101720
18 january, mon
mon1823:00−21˚e0010074 0.0 101820
02:00−21˚ne129992 0.0 101820
05:00−20˚ene239792 0.0 101820
08:00−20˚ne339597 0.0 101733
11:00−17˚ne459290 0.0 1017120
14:00−13˚ne358877 0.0 1015172
17:00−13˚ne368888 0.0 1014129
20:00−12˚ene3584100 0.0 101269
19 january, tue
tue1923:00−11˚e41089100 0.0 1011282
02:00−12˚ene4891100 0.0 1009173
05:00−12˚ene51190100 0.0 1010352
08:00−12˚ene51092100 0.0 1008375
11:00−12˚e61095100 1.1 1008493
14:00−11˚e5894100 1.9 1007465
17:00−11˚e2296100 2.6 1008187
20:00−12˚wsw479599 0.3 1010229
20 january, wed
wed2023:00−14˚wsw6119499 0.6 1013463
02:00−15˚wsw61094100 0.4 1015507
05:00−19˚sw51095100 0.4 1017297
08:00−21˚sw4996100 0.1 1019262
11:00−23˚ssw359897 0.1 1021129
14:00−20˚ssw3595100 0.1 1022303
17:00−20˚sse239798 0.1 102268
20:00−20˚se239897 0.1 102354